Home   Weather   Saint-Pierre   Past weeks

Flag for Saint Pierre and Miquelon Past Weather in Saint-Pierre, Saint Pierre and Miquelon — Yesterday and Last 2 Weeks

55 °F


Feels Like: 54 °F
Forecast: 51 / 57 °F
Wind: 6 mph from Southwest

Location: Saint-Pierre

Current Time: Oct 23, 2016 at 12:25:40 PM

Latest Report: Oct 23, 2016 at 12:00 PM

Visibility: 0 mi

Pressure: 29.59 "Hg

Humidity: 94%

Dew Point: 54 °F

Location of Saint-PierreLocation

Past Weather in Saint-Pierre — Graph


Saint-Pierre Temperature Yesterday

Maximum temperature yesterday: 57 °F (at 11:00 PM)
Minimum temperature yesterday: 50 °F (at 6:00 AM)
Average temperature yesterday: 53 °F

High & Low Weather Summary for the Past Weeks

High61 °F (Oct 10, 12:00 PM)100% (Oct 10, 7:00 AM)30.45 "Hg (Oct 10, 7:00 AM)
Low39 °F (Oct 16, 6:00 AM)54% (Oct 20, 3:00 PM)29.39 "Hg (Oct 11, 6:00 AM)
Average50 °F83%30.04 "Hg
* Reported Oct 8 11:00 AM — Oct 23 11:00 AM, Saint-Pierre, Weather by CustomWeather, © 2016

Note: Actual official high and low records may vary slightly from our data, if they occured in-between our weather recording intervals... More about our weather records


Saint-Pierre Weather History for the Previous 24 Hours

Scroll right to see more
Time TempWeatherWind HumidityBarometerVisibility
11:00 AM
Sun, Oct 23
55 °FFog.2 mph100%29.59 "Hg0 mi
10:00 AM55 °FFog.3 mph94%29.59 "Hg0 mi
9:00 AM54 °FFog.5 mph100%29.59 "Hg0 mi
8:00 AM54 °FFog.5 mph100%29.59 "Hg1 mi
7:00 AM54 °FDrizzle. Fog.7 mph100%29.59 "Hg1 mi
6:00 AM54 °FDrizzle. Fog.15 mph94%29.59 "Hg1 mi
12:00 AM59 °FDrizzle. Fog.31 mph94%29.50 "Hg1 mi
11:00 PM
Sat, Oct 22
57 °FDrizzle. Fog.26 mph100%29.53 "Hg1 mi
10:00 PM55 °FDrizzle. Fog.23 mph100%29.56 "Hg1 mi
9:00 PM55 °FFog.15 mph94%29.59 "Hg1 mi
8:00 PM54 °FFog.17 mph100%29.62 "Hg1 mi
7:00 PM54 °FDrizzle. Fog.21 mph100%29.62 "Hg1 mi
6:00 PM55 °FDrizzle. Fog.26 mph94%29.62 "Hg1 mi
5:00 PM55 °FDrizzle. Fog.28 mph94%29.62 "Hg1 mi
4:00 PM55 °FRain. Fog.23 mph94%29.68 "Hg1 mi
3:00 PM54 °FRain. Fog.18 mph94%29.74 "Hg1 mi
2:00 PM54 °FLight rain. Fog.22 mph94%29.83 "Hg1 mi
1:00 PM52 °FLight rain. Fog.24 mph100%29.89 "Hg1 mi
12:00 PM52 °FDrizzle. Fog.22 mph94%29.92 "Hg1 mi
Weather by CustomWeather, © 2016

See weather overviewHow to use our weather pages